Location: Bridgewater Hill Observatory
(43.5992°N, 72.6989°W)
Time: 18:03:51
(UTC-05:00)

Daily predictions for brighter satellites

Satellite Brightness Start Highest point End
(mag) Time Altitude Azimuth Time Altitude Azimuth Time Altitude Azimuth
Cosmos 1943 4.2 17:03:43 10° SSE 17:08:22 27° ESE 17:13:02 10° NE
Lacrosse 5 rocket 2.3 17:04:35 10° NW 17:08:55 58° SW 17:13:23 10° SSE
AQUARIUS 4.1 17:06:24 10° SSE 17:10:52 71° ENE 17:15:22 10° N
CZ-4 R/B 1.7 17:08:15 10° SSE 17:12:19 51° ENE 17:16:27 10° N
Cosmos 2074 Rocket 4.3 17:07:39 10° N 17:13:52 76° W 17:20:03 10° S
NOSS 2-1 (C) 4.1 17:12:59 10° S 17:16:18 33° ESE 17:19:53 10° NE
Cosmos 2237 Rocket 4.1 17:12:04 10° WSW 17:16:37 24° NW 17:21:11 10° N
NOSS 2-1 (D) 4.0 17:13:35 10° S 17:16:55 34° ESE 17:20:32 10° NE
CZ-2C R/B 4.1 17:17:23 10° NNE 17:21:58 46° E 17:26:28 10° S
METEOR-M 4.2 17:18:16 10° SSE 17:23:28 55° ENE 17:28:41 10° N
Geosat 4.2 17:18:42 10° NNE 17:23:44 76° WNW 17:28:45 10° SW
Meteor 2-1 Rocket 4.3 17:19:30 10° N 17:25:17 81° E 17:31:08 10° SSE
SMAP 3.3 17:22:00 10° S 17:26:40 79° WSW 17:31:21 10° NNW
Cosmos 2221 3.1 17:23:35 10° N 17:27:35 34° ENE 17:31:35 10° SE
Cosmos 1726 2.8 17:24:26 10° NNE 17:27:46 31° ENE 17:31:04 10° SE
IRAS Rocket 4.3 17:22:23 10° SSE 17:27:55 88° ENE 17:33:31 10° NNW
COSMO-SKYMED 1 3.2 17:26:11 10° NNE 17:30:13 37° E 17:34:14 10° SSE
Meteor 1-24 Rocket 4.1 17:24:50 10° SSW 17:30:27 71° WNW 17:36:20 10° N
ATLAS 2AS CENTAUR R/B 3.0 17:25:33 10° NNW 17:33:33 66° NE 17:40:55 10° SE
Cosmos 1867 4.0 17:28:14 10° SW 17:33:38 64° NW 17:39:05 10° NNE
Nadezhda 1 Rocket 4.2 17:28:00 10° SSW 17:34:12 78° W 17:40:32 10° N
TELKOM 3 3.6 17:33:48 10° W 17:35:50 40° NNW 17:37:16 17° NE
Cosmos 968 Rocket 4.1 17:31:53 10° N 17:36:34 33° ENE 17:41:11 10° SE
USA 161 4.2 17:36:08 10° NW 17:37:16 13° WNW 17:38:22 10° W
Cosmos 2341 Rocket 4.0 17:33:11 10° N 17:39:25 65° E 17:45:38 10° SSE
Cosmos 1674 2.6 17:37:14 10° S 17:40:59 83° E 17:44:46 10° N
Lacrosse 4 Rocket 3.6 17:37:57 10° W 17:41:06 21° NW 17:44:15 10° N
SL-14 R/B 4.3 17:38:11 10° SSE 17:41:31 26° E 17:44:42 11° NE
Cosmos 962 Rocket 4.5 17:37:12 10° N 17:43:36 72° E 17:49:52 10° SSE
Landsat 4 4.1 17:40:11 10° NNE 17:43:46 40° E 17:47:17 10° S
NOSS 2-1 (E) 3.3 17:41:23 10° SSW 17:45:01 61° ESE 17:48:21 15° NE
Cosmos 2369 Rocket 2.1 17:41:59 10° NNW 17:47:40 73° ENE 17:53:20 10° SSE
CZ-4 R/B 4.4 17:43:38 10° SSE 17:47:45 84° ENE 17:51:54 10° NNW
Cosmos 1842 Rocket 4.0 17:43:27 10° NNW 17:47:53 68° W 17:52:16 10° S
Meteor 2-10 4.0 17:45:10 10° N 17:50:07 55° ENE 17:55:05 10° SSE
IRS-1A Rocket 4.3 17:46:47 10° SSE 17:52:18 84° WSW 17:57:56 10° NNW
Cosmos 1315 Rocket 4.0 17:49:40 10° SE 17:52:43 22° E 17:53:24 21° ENE
NOSS 3-4 (A) 4.4 17:49:19 10° NNW 17:55:31 34° NE 18:00:23 17° E
NOSS 3-4 (C) 4.4 17:49:26 10° NNW 17:55:37 34° NE 18:00:25 17° E
SKYMED 3 4.5 17:55:57 10° NNE 18:00:19 79° ESE 18:04:39 10° S
Cosmos 1300 2.9 17:57:11 10° N 18:00:54 45° ENE 18:04:34 10° SSE
Tiangong 1 0.8 17:59:19 10° WSW 18:01:45 55° SSE 18:02:19 40° ESE
MONITOR-E 4.0 17:59:17 10° SSE 18:02:19 82° E 18:05:23 10° N
USA 116 4.5 17:58:34 10° N 18:02:29 59° WNW 18:06:55 10° SSW
NOSS 3-3 (A) 3.9 17:57:45 10° SSW 18:03:48 81° SE 18:09:32 14° NE
Okean 3 Rocket 3.7 17:59:23 10° S 18:03:49 57° E 18:08:16 10° NNE
NOSS 3-3 (C) 3.9 17:57:51 10° SSW 18:03:54 80° ESE 18:09:37 15° NE
Cosmos 1076 Rocket 3.6 18:01:06 10° S 18:05:21 55° E 18:09:39 10° NNE
Cosmos 2181 Rocket 4.0 18:01:20 10° S 18:07:46 82° E 18:14:14 10° N
ALOS 2.2 18:04:05 10° SSE 18:08:44 89° E 18:13:26 10° NNW
Cosmos 2084 4.0 18:06:56 10° NW 18:10:37 50° WSW 18:14:22 10° SSE
SPOT 3 Rocket 3.4 18:06:11 10° SSE 18:11:18 76° ENE 18:16:28 10° N
Cosmos 1626 3.9 18:08:54 10° SE 18:10:06 17° SE 18:10:06 17° SE
Meteor 1-21 Rocket 4.3 18:06:29 10° S 18:12:22 87° WNW 18:18:20 10° N
Cosmos 1766 Rocket 4.0 18:08:54 10° SSE 18:12:52 37° E 18:14:21 28° NE
Cosmos 1943 Rocket 2.1 18:08:53 10° NNW 18:14:32 79° ENE 18:20:05 10° SSE
Cosmos 1656 Rocket 4.1 18:10:39 10° N 18:15:41 36° ENE 18:17:56 26° E
PKM 4.5 18:13:43 10° NNW 18:15:56 28° NNE 18:15:56 28° NNE
MTI 4.1 18:14:24 12° N 18:17:22 65° WNW 18:20:33 10° SSW
GEOS 3 Rocket 3.6 18:13:04 10° SE 18:18:20 69° NE 18:23:41 10° NNW
SKYMED 2 3.9 18:14:03 10° N 18:18:22 67° WNW 18:22:40 10° SSW
MOS 1 4.4 18:12:45 10° S 18:18:23 76° WSW 18:24:04 10° NNW
FengYun 1-2 T 4.3 18:13:06 10° SE 18:18:33 53° ENE 18:24:00 10° N
ERS-2 2.0 18:21:11 10° SSE 18:24:52 88° ENE 18:28:34 10° NNW
Cosmos 1400 Rocket 3.1 18:22:50 10° SSW 18:26:50 69° WNW 18:30:56 10° N
Cosmos 1328 3.8 18:23:53 10° S 18:27:49 57° E 18:28:46 44° NE
YAOGAN 1 4.4 18:26:09 10° SSW 18:30:02 32° W 18:33:56 10° NNW
Cosmos 2218 Rocket 3.9 18:26:14 10° N 18:32:27 88° E 18:38:36 10° S
H-2A R/B 2.5 18:31:21 10° SSE 18:35:07 80° ENE 18:38:58 10° N
SL-8 Rocket 4.2 18:29:22 10° NNW 18:35:32 74° W 18:41:43 10° S
BREEZE-M R/B 4.3 18:32:28 10° WSW 18:37:17 82° NNW 18:47:13 25° ENE
FENGYUN 3A 4.4 18:32:32 10° S 18:37:45 55° W 18:43:01 10° NNW
Cosmos 1777 Rocket 4.1 18:37:18 10° NNW 18:42:25 52° ENE 18:42:58 49° E
USA 215 4.3 18:44:07 25° NE 18:45:57 29° N 18:51:23 10° NW
SL-08 R/B 4.4 18:41:10 10° N 18:47:25 87° W 18:53:33 10° S
Cosmos 2098 Rocket 3.5 18:43:24 10° N 18:48:03 58° E 18:53:54 10° SSE
Cosmos 1943 4.1 18:46:45 10° SW 18:52:09 46° WNW 18:56:34 15° N
Cosmos 44 4.5 18:57:34 10° SSW 18:59:39 26° S 18:59:39 26° S
SL-24 R/B - RUBIN 2 4.3 19:02:07 10° NNW 19:05:21 44° NNW 19:05:21 44° NNW
Cosmos 1408 Rocket 3.9 19:04:26 10° SSW 19:08:41 61° W 19:08:58 59° WNW
Nadezhda 3 Rocket 4.0 19:25:06 10° S 19:31:24 82° W 19:32:36 61° N
Thor Agena Rocket 4.0 19:34:00 61° W 19:34:00 61° W 19:38:57 10° SSW
NOSS 3-4 (A) 4.0 19:39:59 10° NW 19:47:00 69° WSW 19:47:55 63° SSW
NOSS 3-4 (C) 4.0 19:40:05 10° NW 19:47:06 70° WSW 19:47:57 64° SSW
